Simultaneous Nadir Overpasses (SNOs) Predictions

Prediction of SNOs between AQUA and METOP-A Satellite Orbit:

Table of predicted SNOs for the next 14.0 days since TLE Epoch: 12/14/2012
Index Date (AQUA) Time (AQUA) Lat,Lon (AQUA) SZA (AQUA ) Date (METOP-A) Time (METOP-A) Lat,Lon (METOP-A) SZA (METOP-A ) Distance(km) Time Diff (sec)
1 12/15/2012 09:32:31 73.78, 31.10 97.03 12/15/2012 09:31:19 73.79, 31.08 97.05 1.62 72
2 12/15/2012 10:21:58 -73.86,-161.42 82.89 12/15/2012 10:21:59 -73.87,-161.41 82.88 1.47 1
3 12/15/2012 11:11:27 73.93, 6.06 97.19 12/15/2012 11:12:38 73.92, 6.04 97.18 0.81 71
4 12/18/2012 05:06:51 73.81, 97.47 97.17 12/18/2012 05:05:40 73.81, 97.53 97.18 1.99 71
5 12/18/2012 05:56:18 -73.88, -95.05 82.76 12/18/2012 05:56:20 -73.89, -94.96 82.75 3.03 2
6 12/18/2012 06:45:47 73.95, 72.42 97.32 12/18/2012 06:46:59 73.94, 72.49 97.30 2.67 72
7 12/21/2012 00:41:11 73.80, 163.89 97.21 12/21/2012 00:40:01 73.80, 163.90 97.22 0.74 70
8 12/21/2012 01:30:38 -73.87, -28.61 82.72 12/21/2012 01:30:41 -73.88, -28.58 82.72 1.08 3
9 12/21/2012 02:20:07 73.95, 138.85 97.37 12/21/2012 02:21:20 73.92, 138.86 97.33 2.91 73
10 12/23/2012 20:15:31 73.82,-129.73 97.22 12/23/2012 20:14:20 73.80,-129.69 97.20 3.18 71
11 12/23/2012 21:04:58 -73.88, 37.77 82.72 12/23/2012 21:05:00 -73.88, 37.83 82.73 1.88 2
12 12/23/2012 21:54:26 73.92,-154.66 97.32 12/23/2012 21:55:39 73.92,-154.73 97.32 2.26 73
13 12/26/2012 15:49:52 73.81, -63.30 97.14 12/26/2012 15:48:39 73.81, -63.24 97.14 1.81 73
14 12/26/2012 16:39:19 -73.87, 104.22 82.81 12/26/2012 16:39:20 -73.85, 104.17 82.83 3.13 1




NCC Satellite Simultaneous Nadir Overpasses (SNOs) Prediction Service
